Starlink 33762

operational
NORAD ID: 63442 Int'l Des: 2025-069 Owner: SPXS Country: US Constellation: starlink
LEOCIRCULAR

Starlink 33762について

説明を読み込み中...

リアルタイム位置

3D地球を読み込み中...

次回通過

高度履歴

Altitude vs Time

uPlot chart will show altitude changes over time

軌道要素

1 63442U 25069K 26034.13736086 .00036806 00000-0 12486-2 0 9996
2 63442 53.1605 303.0430 0000897 74.2381 285.8718 15.30201014 48113
Epoch: Feb 3, 2026 • Age: 6 hours

現在のステータス

高度 491.7 km
速度 7.62 km/s
衛星直下点 -46.76°S, 95.23°W
打ち上げ日 Apr 4, 2025
運用期間 0.8 years
タイプ internet

技術仕様

分類 Payload
質量 575.00 kg
乾燥質量 530.00 kg
総質量 575.00 kg
長さ 0.30 m
直径 4.10 m
スパン 29.00 m
形状 Box + pan
製造者 SPXS
バスタイプ Starlink V2MO
フェーズステータス In Orbit
所有者/国 SPXS/US

大規模コンステレーション

Loading constellations...